Location: *
(43.0167°S, 179.9000°E)
Time: 19:57:17
(UTC+00:00)

DELTA 2 R/B (1) - Pass Details

Date: 12 August 2024
Orbit: 788 x 801 km, 39.6° (Epoch: 19 September)

Event Time Altitude Azimuth Distance (km) Brightness Sun altitude
Exits shadow 18:06:21 11° 272° (W) 2,270 5.3 -9.8°
Maximum altitude 18:11:23 46° 343° (NNW) 1,059 4.2 -8.9°
Drops below altitude 10° 18:16:41 10° 55° (NE) 2,358 7.3 -7.9°
Sets 18:19:14 0° 61° (ENE) 3,283 8.5 -7.4°
